Preview of NWS' New Version of Forecast
This preview is not operational and should not be used for support decisions.

Regional Weather Roundup (RWR)

Issued by National Weather Service (NWS)

                            
000
ASUS45 KCYS 232310
RWRWY 

WYOMING REGIONAL WEATHER ROUNDUP
NATIONAL WEATHER SERVICE CHEYENNE WY
500 PM MDT SUN JUN 23 2019

NOTE:  "FAIR" INDICATES FEW OR NO CLOUDS BELOW 12,000 FEET
WITH NO SIGNIFICANT WEATHER AND/OR OBSTRUCTIONS TO VISIBILITY.

WYZ001-240000-
YELLOWSTONE NATIONAL PARK
  
CITY           SKY/WX    TMP DP  RH WIND       PRES   REMARKS
LK YELLOWSTONE   N/A     50  31  48 VRB5      30.12F                  
W YELLOWSTONE  NOT AVBL                                               

$$
WYZ002>013-054>058-071-098>099-240000-
NORTHERN WYOMING
  
CITY           SKY/WX    TMP DP  RH WIND       PRES   REMARKS
JACKSON        CLOUDY    55  36  48 S8        30.08F                  
CODY           CLOUDY    66  33  29 W13G18    29.95F                  
GREYBULL       FAIR      70  39  32 SE9       29.89F                  
WORLAND        PTSUNNY   72  33  24 SW6       29.89F                  
SHERIDAN       FAIR      72  44  36 W8        29.88F                  
BUFFALO        PTSUNNY   68  39  34 N5        29.92F                  
GILLETTE       FAIR      69  44  40 VRB3      29.89F                  
HULETT         MOCLDY    63  45  51 S3        29.91F                  
NEWCASTLE      MOCLDY    59  43  55 S3        29.93F                  

$$
WYZ014>020-022>026-101>103-240000-
CENTRAL WYOMING
  
CITY           SKY/WX    TMP DP  RH WIND       PRES   REMARKS
BIG PINEY      PTSUNNY   59  31  34 NW20G30   30.12S                  
PINEDALE       CLOUDY    59  30  33 W15G24    30.12F                  
DUBOIS         CLOUDY    54  32  43 NW12      30.06F                  
LANDER         FAIR      66  35  31 N9        29.97F                  
RIVERTON       PTSUNNY   69  36  29 S9        29.98F                  
CASPER         FAIR      69  33  26 W12G21    29.95F                  
DOUGLAS        LGT RAIN  67  43  41 W10       29.96F                  

$$
WYZ021-027>030-104>119-240000-
SOUTHERN WYOMING
  
CITY           SKY/WX    TMP DP  RH WIND       PRES   REMARKS
EVANSTON       FAIR      60  27  28 W17       30.16F                  
KEMMERER       FAIR      63  28  27 W17G29    30.14F                  
FORT BRIDGER   MOCLDY    64  28  25 W23G31    30.17                   
ROCK SPRINGS   CLOUDY    61  27  27 W16G23    30.10F                  
DIXON          FAIR      61  34  36 S16G26    30.12F                  
RAWLINS        FAIR      59  33  37 W22G32    30.07S                  
SARATOGA       FAIR      61  32  33 W17G26    30.09S                  
LARAMIE        PTSUNNY   53  34  48 NW15      30.07F                  
CHEYENNE       PTSUNNY   55  43  63 NW12G18   30.05                   
TORRINGTON     PTSUNNY   66  46  48 VRB6      29.94F                  
PINE BLUFFS    MOCLDY    61  41  48 NW9       30.01F                  

$$